Forside
METAR-TAF:

METAR-TAF

Lufthavne :

Williamson County Regional Airport

Marion, Illinois, USA

Breddekreds: 37-45-01N, længdekreds: 089-00-04W, højde: 144 m

Aktuelle vejr

Denne rapport blev lavet for 52 minutter siden, kl. 16:45 UTC
Vind 10 kt fra nordnordvest
Temperatur -7°C
Fugtighed 73%
Tryk 1034 hPa
Sigt: 32.2 km
Spredte skyer i en højde af 12000 ft
Brudte skyer i en højde af 15000 ft

METAR: KMWA 211645Z 33010KT 20SM SCT120 BKN150 M07/M11 A3052

Tid: 11:37 (17:37 UTC)


TAF: fraværende

Vejrobservationer og prognoser fra mere end 4000 lufthavne (METAR og TAF).

De gule og røde prikker repræsenterer de meteorologiske stationer.

Flyt musen over at se navnet på stationen.

Så klik over at se vejr observationer og prognoser.

At skifte det kort: Klik på de grønne knapper med et sort kors for at zoome ind; på den grønne knap med en bindestreg for at zoome ud; eller på de grønne pile for tilstødende kort.


METAR-TAF: